GFSNGP_prec_cloud_003.txt.gz
Cloud_Cover
0 0 0 0 0 0 0 0 0 0 0 0 0 0 0 0 0 0 5 0 0 0 0 0 0 0 0 0 5 5 5 30 93 8 4 53 72 49 100 100 100 100 100 100
0 0 0 0 0 0 0 0 0 0 0 0 0 0 0 0 0 0 0 0 0 0 0 0 0 0 0 3 3 0 1 5 5 5 10 23 75 5 97 100 100 100 100 100
0 0 0 0 0 0 0 0 0 0 0 0 0 0 0 2 5 0 0 0 0 0 0 0 0 0 0 0 0 0 0 5 5 26 23 13 5 8 99 100 100 100 100 100
7 0 0 0 0 0 0 0 0 0 0 0 0 4 0 5 0 0 0 0 0 0 0 0 0 0 0 0 0 5 5 6 41 49 32 66 67 10 29 99 93 99 100 100
95 100 0 0 0 0 0 0 0 0 0 0 1 16 7 43 0 0 0 0 5 0 0 0 0 0 0 0 4 5 5 31 69 54 95 65 81 17 63 6 71 100 100 100
100 100 24 0 0 0 0 0 0 0 0 0 16 96 98 74 5 0 0 5 1 0 0 0 0 0 0 82 30 5 13 46 61 61 49 46 69 84 88 49 27 99 100 100
100 100 35 73 0 0 0 0 0 0 0 5 11 54 96 5 5 44 12 46 5 4 4 0 0 0 0 3 13 1 21 97 93 100 75 36 84 100 46 35 5 13 88 100
100 100 100 100 100 36 0 0 0 5 41 5 100 1 1 2 27 43 36 14 81 59 45 49 5 0 0 0 16 80 84 100 99 100 100 100 100 67 36 56 48 86 97 96
53 46 100 95 100 100 69 0 50 54 70 88 96 87 92 5 5 23 100 97 100 100 100 98 9 62 5 56 95 100 96 100 100 100 100 99 68 5 23 26 54 5 70 95
100 95 100 65 89 100 57 28 100 75 30 100 57 100 94 98 9 28 94 77 41 5 5 5 12 4 1 53 97 98 100 100 100 96 96 85 81 4 6 55 60 100 100 100
100 100 100 100 100 100 99 9 7 34 92 40 100 88 100 53 100 68 25 66 40 60 33 3 2 10 30 48 52 33 71 100 100 94 77 100 87 100 80 27 30 100 100 100
100 100 100 100 100 100 100 100 83 100 79 100 47 76 100 90 70 92 100 100 100 100 10 24 3 12 37 31 46 78 100 100 78 38 12 89 84 24 91 100 98 100 100 60
100 100 100 100 100 100 100 100 100 100 100 100 100 100 100 100 100 100 100 100 89 39 5 10 53 20 53 45 50 50 27 31 8 27 5 99 78 5 62 80 0 6 9 12
100 100 100 100 100 100 99 100 100 100 100 100 100 100 100 100 100 100 100 74 55 88 96 100 44 5 23 14 5 4 2 24 52 72 63 76 100 100 15 14 86 44 100 9
100 100 100 100 100 100 100 100 100 100 100 100 100 100 100 100 100 99 99 9 5 12 5 16 5 5 5 5 12 93 100 100 77 48 51 19 9 87 100 57 6 97 68 100
100 100 100 100 100 100 100 100 100 100 100 100 100 74 100 86 92 10 2 3 45 40 2 23 50 5 40 98 100 100 100 86 64 79 100 100 100 49 9 96 88 100 92 7
100 100 100 100 100 100 100 100 100 100 100 100 99 66 5 11 7 4 3 5 29 100 100 100 100 100 100 100 100 100 100 100 100 100 100 59 89 74 7 5 26 88 9 4
100 100 100 100 100 100 100 100 100 100 100 95 5 0 3 5 33 7 53 13 12 84 94 96 100 100 100 100 100 96 96 82 90 100 100 85 91 17 70 80 100 26 15 89
100 100 100 100 100 100 100 100 56 14 8 5 4 16 45 6 35 32 28 22 29 45 53 69 98 100 100 100 59 32 7 88 97 100 99 77 53 100 100 99 96 99 99 100
100 100 100 100 100 100 100 100 100 80 25 16 5 5 12 5 4 59 22 17 32 21 38 11 54 76 53 5 3 4 82 97 100 48 69 52 65 97 100 100 100 100 100 97
100 100 100 100 100 100 100 100 100 66 100 8 7 38 12 30 26 12 5 5 55 84 29 5 5 5 5 5 5 5 5 5 5 4 0 3 5 15 91 100 99 48 10 5
100 100 100 100 100 100 100 94 26 89 78 84 100 100 80 70 60 25 5 5 5 54 13 5 5 5 5 18 24 5 3 2 0 0 0 0 1 7 93 100 70 53 9 0
100 100 100 97 6 16 96 100 100 100 84 85 23 56 91 90 27 8 5 5 5 52 9 5 5 5 5 5 5 5 1 0 0 0 0 0 0 2 1 2 1 0 0 0
100 100 100 25 87 100 38 94 100 100 97 98 94 69 45 90 96 44 30 55 67 54 54 22 5 5 5 5 5 3 0 0 0 0 0 0 0 0 0 0 0 0 0 0
62 95 100 100 100 100 100 65 75 68 53 69 44 20 100 100 100 96 18 5 16 29 46 95 98 100 100 97 17 5 5 5 4 5 1 0 0 0 0 0 0 0 0 0
100 100 75 100 100 99 49 24 18 72 59 68 5 5 36 55 54 35 5 5 5 5 3 3 3 3 2 1 0 0 1 0 0 3 2 0 0 0 0 0 1 3 0 0
100 100 100 85 64 32 7 8 8 22 12 19 7 5 5 5 5 5 5 5 4 1 1 0 0 0 0 0 0 0 0 0 0 0 0 0 0 0 0 0 0 0 0 0

GFSNGP_prec_cloud_006.txt.gz
Cloud_Cover
0 0 2 0 0 0 0 0 1 2 5 84 99 42 0 0 0 0 0 0 1 5 0 0 0 0 0 0 0 0 0 0 0 9 25 61 43 23 7 38 52 77 100 100
5 2 0 0 0 0 0 0 0 0 0 5 93 51 4 0 0 0 0 0 9 100 6 0 0 0 0 0 0 0 0 0 0 31 66 36 49 36 5 67 5 99 100 100
4 48 22 3 0 4 0 0 0 0 0 2 7 5 2 0 0 0 0 0 0 95 6 0 0 0 0 0 0 0 0 0 0 17 31 80 100 93 94 44 5 5 86 98
73 100 85 0 2 0 1 0 0 0 0 1 0 1 0 0 0 1 0 0 0 5 1 0 0 0 0 0 0 0 0 0 0 10 37 79 100 98 100 51 14 17 0 1
85 96 100 2 54 22 0 0 0 0 0 0 0 0 0 0 0 1 0 0 2 0 0 0 0 0 0 0 0 0 0 0 86 5 43 99 100 86 97 95 95 49 15 20
100 94 48 90 29 0 0 0 0 0 0 5 5 2 0 0 0 4 2 0 0 0 0 0 0 0 0 0 0 0 0 0 21 8 56 100 100 91 100 100 82 72 39 83
100 94 80 3 69 84 0 0 0 0 0 0 4 0 0 0 0 33 0 0 0 0 0 4 0 0 0 3 0 4 0 0 8 24 56 92 100 100 100 100 100 91 74 69
100 100 81 4 100 97 0 0 0 0 0 0 0 0 0 2 46 89 7 12 3 0 2 0 0 0 29 28 52 6 5 9 85 92 100 92 85 85 100 100 100 100 3 94
33 5 0 16 100 100 98 1 0 0 0 0 0 0 1 7 100 82 5 5 18 5 5 5 40 83 100 99 69 12 57 100 99 100 100 100 100 100 100 100 98 47 51 99
4 0 2 100 100 100 100 100 2 0 0 0 2 1 50 81 100 68 76 100 100 74 51 62 14 20 100 9 11 1 26 61 66 92 98 100 100 96 89 100 64 36 76 57
0 0 100 100 100 100 100 100 88 36 2 7 97 80 47 4 100 76 32 77 98 100 87 16 19 100 80 86 90 36 51 67 100 100 100 94 100 100 100 83 60 37 39 84
7 7 65 100 100 99 100 100 100 100 9 77 78 41 99 85 99 97 72 47 100 99 29 100 98 100 100 100 73 99 98 73 24 13 26 85 41 20 84 34 100 100 100 49
60 15 100 100 100 100 100 100 100 100 15 94 61 81 3 100 100 100 94 48 100 100 100 100 100 100 50 99 100 72 5 5 3 1 0 1 12 4 5 32 13 52 10 92
36 100 100 100 100 100 100 100 100 100 100 100 100 100 78 12 6 12 96 95 100 100 97 50 49 39 40 26 37 44 7 15 1 0 0 1 5 5 5 20 87 90 60 24
100 100 100 100 100 100 100 100 100 96 100 100 100 100 100 100 100 100 100 100 100 100 100 99 100 100 18 16 16 5 2 0 0 0 2 6 11 5 15 5 5 2 0 11
100 100 100 100 100 100 100 100 100 100 100 100 100 100 100 100 86 100 100 100 100 100 50 5 57 58 68 5 3 0 0 20 0 3 24 85 91 5 5 4 8 27 2 1
100 100 100 100 100 100 100 100 100 100 100 100 100 100 100 100 99 99 78 100 100 100 13 14 100 59 5 5 0 0 5 5 6 7 89 36 5 57 5 5 5 5 6 45
100 100 100 100 100 100 100 100 100 100 100 100 100 100 100 100 100 100 93 100 100 89 13 93 100 45 5 1 4 4 5 5 4 20 51 9 14 5 40 32 6 5 52 88
100 100 100 100 100 100 100 100 100 100 100 100 100 100 100 100 100 100 50 100 28 65 100 83 31 47 1 3 22 18 4 7 56 82 13 24 5 4 3 12 74 85 76 95
100 100 100 100 100 100 100 100 100 100 100 100 88 71 100 100 100 100 100 100 87 92 37 10 30 44 98 50 5 5 61 100 31 51 9 2 20 62 91 49 39 98 90 99
100 100 100 100 100 100 100 100 100 100 100 100 100 73 37 82 99 100 100 100 78 46 72 97 100 60 40 5 46 54 25 24 5 16 19 5 65 4 89 100 100 100 98 100
100 100 100 100 100 100 100 100 100 100 100 100 100 100 53 62 58 50 99 72 5 92 74 99 82 34 54 36 18 4 4 0 3 1 0 0 0 0 1 4 5 4 18 46
100 100 100 100 100 100 100 100 100 100 100 100 100 100 100 100 100 88 86 100 25 79 100 72 89 54 30 8 5 5 3 2 1 0 1 0 0 2 0 3 2 0 2 4
100 100 100 100 100 100 96 100 100 100 100 100 100 100 100 100 99 100 98 96 30 100 90 99 99 77 54 99 47 5 5 5 4 3 5 0 0 0 5 3 3 4 2 5
100 100 100 100 100 100 100 100 100 100 99 100 100 98 99 100 100 100 100 95 90 53 45 46 9 5 5 6 55 95 60 34 24 8 5 4 4 5 4 5 0 5 5 5
50 37 92 62 98 91 92 100 93 100 100 96 46 53 17 19 59 29 62 69 73 16 5 40 31 10 6 22 45 74 57 40 20 2 0 2 2 0 1 0 1 5 5 4
100 91 33 77 45 26 20 56 96 100 100 12 5 17 5 5 5 5 4 8 44 74 93 91 100 88 66 71 86 89 67 41 20 3 5 4 2 1 0 0 0 0 0 0

GFSNGP_prec_cloud_009.txt.gz
Cloud_Cover
0 4 5 4 0 0 0 0 0 0 5 5 14 91 45 33 0 0 0 0 0 0 0 0 0 0 0 0 0 0 0 0 0 0 0 0 0 0 0 0 2 0 5 66
4 2 2 6 10 5 0 0 0 0 4 5 7 100 95 5 0 0 0 2 0 0 0 0 1 0 0 0 0 0 0 0 0 0 0 0 0 0 6 9 61 5 5 100
5 5 72 58 0 0 4 5 1 0 0 5 69 97 31 4 0 0 0 0 0 0 0 0 5 5 0 0 0 0 0 0 0 0 0 0 0 5 23 34 55 11 49 5
71 100 92 1 8 32 6 5 10 5 0 0 0 4 17 49 4 0 0 0 0 0 0 0 5 4 5 0 0 0 0 0 0 0 0 0 18 39 71 100 100 99 100 25
97 86 11 2 38 18 26 4 3 6 12 0 0 0 5 52 86 6 0 3 0 0 0 0 1 5 1 0 0 0 0 0 0 0 8 20 56 93 100 93 100 96 63 28
100 100 88 72 96 20 57 0 0 31 70 5 5 5 3 47 100 100 15 0 0 0 0 0 0 0 0 0 0 0 0 0 0 0 6 11 38 100 98 100 100 100 100 91
68 90 38 86 16 55 15 59 29 0 0 4 4 2 100 29 11 99 10 6 5 5 5 5 2 0 0 0 0 0 0 2 4 5 37 100 100 87 100 100 100 100 100 99
70 100 52 35 11 50 46 5 2 0 0 0 7 77 40 1 0 5 5 5 5 5 5 5 5 5 0 0 0 0 8 95 48 58 99 100 96 88 67 78 100 100 95 90
97 92 48 9 49 5 0 0 2 5 1 0 2 10 0 0 0 0 1 5 5 5 5 5 5 5 3 5 5 5 38 100 100 100 100 100 100 72 87 100 100 62 73 94
100 38 39 88 28 82 1 1 40 80 26 0 0 0 0 0 0 0 5 32 0 4 5 5 5 5 8 23 9 48 54 96 100 100 100 97 98 100 98 87 71 88 28 34
31 88 100 10 5 4 0 53 93 100 6 78 76 86 88 94 63 52 38 76 17 15 42 71 5 5 5 7 32 81 99 100 100 100 99 93 94 59 50 99 43 15 96 42
99 29 16 5 11 5 1 56 97 90 57 100 100 100 100 100 90 77 100 100 78 77 68 66 8 74 100 75 7 42 97 100 100 77 94 64 98 100 97 75 96 75 10 41
100 100 5 5 5 13 12 86 81 100 98 100 100 93 86 91 13 95 100 99 94 100 100 100 100 100 100 100 100 99 88 100 100 100 35 41 83 81 14 33 4 0 0 0
100 77 8 5 73 63 100 100 100 100 94 46 68 90 10 91 96 24 30 12 24 93 100 73 76 76 100 100 100 100 99 93 100 100 100 100 98 34 2 0 0 2 16 6
100 79 28 32 100 99 98 85 100 100 100 99 99 81 85 24 21 38 86 98 100 100 100 100 100 92 100 100 100 100 100 94 81 65 18 28 80 46 5 53 67 5 0 0
89 78 100 100 100 100 100 100 100 100 100 100 99 98 100 100 100 98 97 74 10 100 100 100 100 92 100 100 88 85 47 89 6 5 71 22 0 0 0 4 9 3 5 0
99 100 100 100 100 100 100 100 100 100 100 100 90 100 100 100 100 100 100 100 100 100 100 100 100 98 100 100 100 40 67 4 0 2 10 0 0 0 3 42 100 99 86 77
100 100 100 100 100 100 100 100 100 100 100 100 100 100 100 100 100 100 100 100 100 100 100 100 100 82 100 75 21 5 16 9 0 12 77 37 33 62 95 90 92 99 52 39
100 100 100 100 100 100 100 100 100 100 100 100 100 100 100 100 98 35 100 100 100 100 100 98 100 86 100 98 93 29 98 10 33 44 89 46 12 99 100 98 100 100 70 58
100 100 100 100 100 100 100 100 100 100 100 88 100 100 100 100 100 100 100 100 61 89 100 100 100 99 100 100 99 80 100 96 100 99 100 100 100 66 97 36 38 93 65 100
100 100 100 100 100 100 100 100 100 100 100 100 100 100 100 100 100 100 100 100 100 100 100 17 94 91 48 100 100 94 52 15 8 60 100 64 28 13 93 99 66 13 38 96
100 100 100 100 100 100 100 100 100 100 81 100 100 100 100 100 100 100 100 99 45 64 75 100 74 47 100 88 92 100 72 96 47 49 82 82 24 33 36 83 90 100 94 100
100 100 100 100 100 100 100 100 100 100 100 100 100 100 100 100 100 100 100 89 100 68 94 100 70 7 65 66 83 97 81 8 37 19 41 66 18 5 5 5 15 23 16 6
100 100 100 100 100 100 100 100 100 100 100 100 100 100 100 100 100 100 100 100 100 100 100 100 100 100 100 86 100 98 97 92 20 59 100 30 5 5 4 5 5 5 7 8
100 100 100 100 100 100 100 100 100 100 100 100 100 100 100 100 100 100 100 100 100 100 100 100 100 100 100 100 100 100 100 100 97 70 54 9 5 5 5 5 5 5 5 5
100 100 100 100 100 100 100 100 100 100 100 100 100 100 100 92 100 94 100 100 100 100 100 96 66 59 38 71 76 84 91 97 99 43 44 2 2 4 7 3 2 4 5 6
100 97 100 100 100 100 100 100 100 100 100 100 100 100 77 88 68 41 57 79 81 98 98 85 86 100 99 96 100 60 98 78 96 100 100 98 100 67 78 79 31 5 0 4

GFSNGP_prec_cloud_012.txt.gz
Cloud_Cover
0 0 13 4 2 0 0 0 0 0 0 5 23 99 14 100 71 71 94 0 3 5 1 0 0 0 0 0 0 0 0 0 0 0 0 0 0 0 0 0 0 0 1 5
0 0 0 81 37 5 0 0 0 0 0 0 7 64 100 100 64 73 7 1 0 5 5 0 0 0 0 0 0 0 0 0 0 0 0 0 0 0 0 0 0 5 8 39
0 5 11 82 0 42 63 1 0 0 0 0 0 41 66 100 84 76 97 17 0 0 0 0 0 0 0 0 0 0 0 0 0 0 0 0 0 0 0 0 0 15 11 45
9 93 63 2 4 2 2 4 4 0 0 0 0 1 5 10 99 100 48 5 1 0 0 0 0 0 0 1 4 2 0 0 0 0 0 0 0 0 0 0 11 44 72 100
100 82 7 5 3 85 100 34 3 0 0 30 0 0 1 7 99 7 3 100 64 1 0 4 0 0 0 0 5 3 0 0 0 0 1 1 0 0 1 39 73 100 100 100
100 100 5 74 100 100 26 0 0 24 5 3 8 64 0 0 2 46 99 100 80 2 0 4 5 0 0 0 3 0 0 0 5 1 5 5 0 1 15 100 100 100 100 100
100 97 100 100 100 98 36 0 4 0 3 3 0 0 0 0 0 34 100 99 0 56 0 5 0 0 0 0 0 5 5 5 5 5 5 3 3 4 100 100 90 68 100 100
100 100 100 70 28 96 100 7 5 18 37 64 0 0 0 2 8 4 22 100 59 56 5 2 0 0 0 0 0 5 5 5 5 5 5 8 42 99 99 95 98 100 100 90
100 100 100 100 49 100 48 5 1 0 78 10 0 0 0 0 0 18 65 14 4 0 2 5 5 0 0 0 0 0 1 5 5 5 46 100 78 96 100 100 100 100 86 2
100 100 100 57 24 37 95 6 2 0 0 0 0 0 0 0 0 6 100 99 7 0 0 2 5 25 81 54 30 13 5 7 85 98 96 97 100 100 100 100 100 100 68 10
100 91 17 24 27 15 5 5 0 0 0 0 0 1 10 0 0 0 40 2 0 0 0 0 0 2 4 11 29 29 32 96 100 99 100 100 100 99 100 100 100 89 41 11
98 97 90 54 43 84 29 0 3 0 0 0 0 56 96 81 30 0 0 0 0 7 19 19 73 76 13 5 100 81 71 63 100 100 100 100 95 90 89 82 31 31 9 5
100 100 100 100 24 100 58 3 3 0 0 0 91 100 100 100 100 100 85 66 100 70 100 100 99 100 100 100 100 100 100 100 100 77 88 99 100 100 90 38 99 54 18 5
100 100 100 100 100 100 100 5 5 0 0 4 59 100 100 100 100 100 100 100 57 82 100 70 100 100 88 100 100 85 67 28 5 80 100 100 100 100 94 10 57 18 31 4
100 100 100 100 100 100 100 31 6 2 0 3 100 100 100 100 100 100 100 100 98 81 46 100 100 100 100 100 100 98 44 66 100 100 100 100 100 68 35 64 10 2 5 0
100 100 100 100 100 100 35 5 10 2 13 17 13 98 100 100 100 100 100 76 47 5 7 100 100 93 100 100 99 68 90 100 100 100 100 100 87 55 39 84 100 99 2 0
100 100 100 100 100 100 96 47 64 73 97 39 29 64 44 63 100 100 77 32 98 99 84 56 100 100 100 100 100 100 100 100 100 100 100 100 100 99 49 63 27 22 6 76
100 100 100 100 100 100 100 100 100 99 100 100 100 96 92 97 100 100 100 100 100 100 100 98 99 96 100 100 100 100 100 100 100 100 100 58 39 86 73 54 36 85 48 14
100 100 100 100 81 50 16 78 100 100 100 100 100 100 100 94 84 100 100 100 100 100 100 100 100 100 100 100 100 100 100 100 100 99 100 94 98 100 100 100 100 100 46 3
100 100 100 99 100 94 97 98 100 100 100 100 100 100 100 100 100 100 100 100 99 100 100 99 100 100 100 100 100 100 100 100 88 100 97 97 80 100 100 100 67 17 1 17
100 100 100 100 100 99 100 100 100 100 100 100 100 100 100 100 100 100 100 100 100 89 96 100 100 94 95 100 100 100 100 99 97 100 99 25 99 70 41 99 25 21 58 100
100 100 100 78 91 100 100 100 100 100 100 100 100 100 100 100 100 100 100 100 100 100 100 100 100 100 100 100 100 100 100 99 81 34 44 97 10 78 88 58 98 100 75 47
100 100 99 100 98 100 100 100 100 100 100 100 100 100 98 100 100 100 100 100 100 100 100 100 100 100 100 69 98 100 100 38 33 36 21 65 40 35 99 100 96 87 93 90
100 100 100 100 75 100 100 100 100 100 100 100 100 100 100 100 100 100 100 100 100 100 100 100 100 100 100 100 78 38 87 100 96 72 98 100 100 100 17 9 75 7 36 58
100 100 100 100 100 100 100 100 100 100 100 100 100 100 100 100 100 100 71 49 44 70 71 100 100 100 100 99 99 100 100 96 96 100 100 100 90 12 34 47 27 5 7 65
100 100 100 100 100 100 100 100 100 100 96 100 99 93 85 100 85 98 41 89 100 100 100 100 100 100 100 100 100 100 100 100 100 95 99 100 85 61 11 70 75 5 4 4
100 88 64 84 94 100 100 98 63 60 100 97 67 45 92 75 90 100 79 85 100 100 94 72 91 100 83 96 95 100 100 100 74 100 98 56 100 83 83 74 99 100 56 5

GFSNGP_prec_cloud_015.txt.gz
Cloud_Cover
5 0 0 5 0 5 0 0 0 0 0 0 0 15 19 87 70 100 77 100 72 2 5 4 0 0 0 0 0 0 0 0 0 0 0 0 0 0 0 0 0 0 0 0
0 3 4 0 0 0 0 0 0 0 0 0 0 73 91 87 100 45 96 76 95 64 5 3 0 0 0 0 0 0 0 0 0 0 0 0 0 0 0 0 0 5 5 3
0 5 8 0 0 0 0 0 0 0 0 0 0 0 0 96 87 28 4 98 78 100 7 4 1 1 0 0 0 0 0 0 0 0 0 0 0 0 0 0 0 5 5 3
0 5 55 1 0 0 0 0 4 1 0 0 0 0 0 1 99 33 53 5 49 100 100 5 2 2 0 0 0 0 0 0 0 0 0 0 0 0 0 5 5 5 2 42
4 0 0 0 3 8 5 3 5 3 0 0 0 0 0 0 2 2 0 4 89 45 98 100 55 1 0 5 5 2 4 4 3 0 1 0 5 5 5 5 5 14 85 99
6 3 0 4 33 100 66 0 5 5 1 0 1 0 0 0 0 0 0 0 0 97 100 100 36 3 0 0 0 0 0 0 5 5 5 5 0 5 4 0 76 100 100 100
12 0 0 5 99 100 35 5 5 7 0 0 0 0 0 0 0 0 0 0 3 5 19 74 75 7 5 2 0 0 0 10 7 5 2 0 0 0 10 73 91 98 100 100
90 64 5 76 100 53 5 7 28 16 8 3 0 0 0 0 0 0 0 0 0 71 51 5 1 0 4 8 0 0 0 18 8 3 3 13 5 21 72 35 49 100 100 100
100 100 100 100 100 59 99 97 25 59 36 3 98 61 0 0 0 0 0 0 0 3 89 78 4 0 0 0 11 5 0 13 100 7 2 1 7 11 76 10 37 60 88 100
53 92 54 97 97 59 62 100 100 10 73 82 100 70 0 0 0 0 0 0 0 0 0 79 90 61 5 3 0 2 65 6 96 93 53 5 5 5 5 12 32 98 94 26
100 100 95 77 33 67 100 100 100 100 100 94 4 0 0 0 2 0 0 0 0 0 0 7 100 100 100 79 36 69 85 98 100 100 85 80 93 81 12 46 99 16 38 24
100 100 56 100 100 100 100 100 100 100 100 5 0 0 0 0 1 68 100 100 100 42 83 14 16 77 89 100 6 92 99 100 100 100 100 93 39 92 98 59 27 21 95 100
100 100 100 100 95 100 100 100 96 70 5 5 7 0 0 5 100 100 100 100 100 100 100 100 64 5 21 6 3 100 100 100 100 100 100 88 100 100 48 75 80 5 100 13
100 100 100 73 100 100 100 100 100 89 99 83 0 0 0 71 100 100 100 100 100 100 100 100 53 76 0 0 36 92 100 99 100 74 75 100 88 91 90 84 38 100 100 56
100 100 100 99 100 100 100 100 99 27 100 13 0 0 31 100 100 100 100 100 100 100 100 97 7 50 8 37 99 100 100 92 22 11 70 100 100 100 98 100 100 100 100 100
100 100 100 100 100 100 100 100 100 93 95 9 0 0 92 100 100 100 100 100 100 100 100 4 2 28 5 50 28 9 84 54 57 71 100 100 100 100 100 100 100 100 100 100
100 100 100 100 100 100 100 100 100 100 32 5 5 29 100 100 100 100 100 100 100 100 80 5 5 76 79 48 98 100 100 100 100 100 100 100 100 100 100 100 100 100 100 100
100 100 100 100 100 100 100 100 100 67 40 75 38 99 25 100 100 100 100 100 100 87 20 46 61 100 100 100 75 100 100 100 100 100 87 100 100 96 100 100 100 100 100 74
100 100 100 100 100 100 100 100 99 100 100 97 100 100 69 100 100 100 100 100 99 100 100 95 89 70 64 100 100 100 100 100 100 100 100 100 100 100 100 99 100 100 27 89
100 100 100 100 100 100 100 100 100 100 96 84 100 100 100 100 99 100 100 100 100 100 100 100 100 100 100 100 100 100 100 100 100 100 100 94 89 87 99 83 19 90 100 77
100 100 100 100 100 100 100 98 100 100 59 80 100 100 100 100 100 100 100 100 100 100 100 100 100 100 100 100 100 100 97 14 100 100 100 100 100 100 100 100 60 22 100 97
100 100 100 100 100 100 100 100 100 100 100 100 100 100 100 100 100 100 99 86 88 99 100 100 100 100 82 100 100 100 99 93 100 100 100 100 100 100 100 95 97 83 53 90
100 100 100 100 100 100 100 100 100 100 100 100 100 98 84 100 100 100 100 98 99 99 85 75 85 96 100 100 100 100 100 100 100 100 94 76 53 52 62 70 68 73 30 87
100 100 100 100 100 100 100 100 100 99 94 100 100 100 100 100 100 100 100 100 100 100 100 43 21 72 100 100 100 100 100 100 100 99 34 81 88 100 86 100 100 100 100 100
100 100 100 100 100 100 100 100 100 100 100 100 100 100 100 100 100 100 100 100 100 100 100 100 100 100 100 100 100 100 100 100 100 100 100 100 100 100 100 100 100 100 100 100
100 100 100 100 100 100 100 100 100 100 100 100 100 100 100 100 100 100 100 100 100 100 100 100 100 100 100 100 100 100 100 100 100 100 100 100 95 99 100 100 100 90 89 46
99 100 100 100 100 100 100 100 100 100 99 100 100 100 100 100 100 100 100 100 100 100 100 100 100 98 97 91 88 78 58 50 100 85 74 74 33 93 96 100 89 95 89 89

GFSNGP_prec_cloud_021.txt.gz
Cloud_Cover
1 3 37 99 45 5 5 32 4 100 1 0 0 0 0 0 0 0 0 2 4 0 17 11 4 5 50 4 50 84 48 0 0 0 0 0 0 0 0 0 0 0 0 0
0 4 1 5 6 89 32 100 9 97 13 100 2 0 0 0 0 0 0 0 0 4 1 0 37 36 75 35 5 5 4 0 0 0 0 0 0 0 0 0 0 0 0 0
0 0 0 0 99 100 100 86 100 100 91 99 15 0 0 1 0 0 0 0 0 0 4 0 22 99 93 92 58 5 0 0 0 0 0 0 0 0 0 0 0 3 0 0
0 0 0 8 13 0 0 5 66 100 100 23 5 5 0 0 0 0 0 0 0 0 0 3 2 0 100 100 62 50 1 4 3 0 0 0 0 13 20 8 13 32 1 0
0 0 0 0 1 0 0 4 5 39 100 98 70 5 5 4 0 0 0 0 0 0 0 0 0 0 73 100 93 67 16 0 0 0 14 0 0 13 53 91 26 42 33 0
5 4 0 0 0 0 0 0 0 2 9 45 100 6 5 0 0 0 0 0 0 0 0 0 0 0 0 0 0 0 94 100 25 86 92 6 0 5 45 94 89 67 36 17
45 77 0 1 12 0 0 3 0 5 2 61 98 79 4 5 5 1 0 0 0 0 0 0 0 5 5 4 2 3 5 85 100 100 58 42 4 20 47 99 100 100 98 95
17 99 5 5 12 58 62 18 0 2 11 30 38 40 87 56 5 1 0 4 0 0 0 0 0 0 23 4 4 88 96 84 100 66 100 100 79 43 92 100 100 100 100 100
68 16 5 35 96 100 99 46 36 5 18 18 49 63 98 39 22 5 5 17 42 22 0 0 0 0 0 4 3 5 48 64 14 12 100 100 69 60 100 95 100 100 100 100
100 65 100 100 100 100 47 39 10 54 44 28 53 42 62 72 50 5 5 0 0 1 10 16 17 12 0 0 0 0 5 1 1 24 91 100 100 100 100 100 100 100 100 100
100 100 100 100 79 64 42 5 96 99 60 0 0 1 5 12 5 5 4 0 2 51 0 0 0 0 0 7 0 3 5 20 94 100 100 100 100 100 100 100 100 100 100 100
50 100 100 100 26 7 25 3 5 63 100 70 8 16 34 35 48 65 39 6 63 3 3 4 1 0 0 0 62 3 84 98 100 97 100 100 100 100 100 100 100 100 100 100
83 100 100 100 100 100 98 7 78 64 99 100 100 100 100 90 43 80 90 5 5 0 0 4 1 97 97 3 28 49 100 100 100 100 100 100 100 100 100 100 100 100 100 100
43 100 100 100 100 100 100 100 50 32 100 100 54 96 52 32 51 94 97 58 27 10 13 51 65 100 100 92 100 100 100 100 100 100 100 100 100 100 100 100 100 100 100 100
85 100 100 100 100 100 100 89 100 92 100 100 96 68 82 33 98 89 90 76 78 91 99 100 100 100 100 100 100 100 100 100 100 100 100 100 100 100 100 100 100 100 100 100
97 100 100 100 100 100 100 100 98 100 100 100 62 80 100 99 42 5 10 66 100 100 100 100 100 100 100 100 100 100 100 100 100 100 100 100 100 100 100 100 100 100 100 100
100 100 100 100 100 100 100 92 99 100 100 100 100 100 100 93 100 98 7 12 100 100 100 100 100 100 100 100 100 100 100 100 100 100 100 100 100 100 100 100 100 100 100 100
100 100 100 100 100 100 100 100 100 100 100 100 100 100 100 98 48 39 42 42 100 100 100 100 100 100 100 100 100 100 100 100 100 100 100 100 100 100 100 100 100 100 100 88
100 100 100 100 100 100 100 100 100 100 100 100 100 100 95 22 5 5 47 51 64 100 100 100 100 100 100 100 100 100 100 100 100 100 100 100 100 100 100 100 100 100 99 75
100 100 100 100 100 100 100 100 100 100 100 100 97 57 89 5 18 60 86 83 100 100 100 100 100 100 100 100 100 100 100 100 100 100 100 100 100 100 100 90 92 64 37 78
100 100 100 100 100 100 100 100 100 100 100 100 100 99 100 100 100 100 100 100 96 83 92 100 100 100 100 100 100 100 100 100 100 100 100 100 100 100 97 98 96 100 100 100
100 100 100 100 100 100 100 100 100 100 100 100 100 100 100 100 74 45 73 72 100 100 62 99 100 100 100 100 100 100 100 100 100 100 100 100 100 100 100 100 100 100 65 76
100 100 100 100 100 100 100 100 100 100 100 100 100 100 100 60 16 23 17 26 84 91 86 88 94 100 100 100 100 100 100 100 100 100 100 100 100 100 100 89 100 100 96 100
100 100 100 100 100 100 100 100 100 100 100 100 100 100 73 88 71 81 13 2 0 4 42 89 100 100 45 100 83 50 100 96 100 90 88 100 100 92 96 71 63 50 80 98
100 100 100 100 100 100 100 100 100 100 100 100 100 100 100 98 95 91 65 6 5 5 5 5 41 100 100 100 98 99 98 64 97 99 28 12 92 66 22 5 5 7 8 12
100 100 100 100 100 98 99 100 100 100 100 100 100 100 97 96 96 100 100 92 90 44 29 37 85 37 24 51 91 100 100 100 100 100 94 95 76 90 41 55 9 75 72 5
100 100 100 100 100 100 68 59 92 100 100 99 100 79 87 100 100 100 66 19 16 5 5 5 5 5 5 8 48 16 16 77 100 96 100 34 100 100 99 52 30 91 90 79

GFSNGP_prec_cloud_024.txt.gz
Cloud_Cover
0 0 0 0 0 3 83 89 0 38 4 0 0 0 0 0 0 0 1 5 3 0 0 0 0 0 0 0 0 0 0 16 83 50 95 100 61 3 0 0 0 0 0 0
0 0 0 0 5 5 9 99 80 46 1 0 0 0 0 0 0 0 0 0 4 22 5 1 0 4 4 5 6 6 4 2 3 0 0 0 2 0 0 0 0 0 0 0
0 0 0 0 30 72 51 5 90 93 5 0 0 0 0 1 0 0 0 0 0 0 2 5 5 5 5 55 77 92 63 18 5 4 0 0 0 0 0 0 0 0 0 0
0 0 0 0 8 6 2 5 35 100 65 5 0 0 0 0 0 0 0 0 0 0 0 0 0 1 2 0 1 100 100 100 82 90 69 0 5 0 0 0 0 0 1 0
0 0 0 0 0 0 0 2 16 99 88 5 0 0 0 0 0 0 0 0 0 0 0 0 0 0 0 0 0 15 97 48 67 100 99 5 5 3 0 0 0 0 2 18
1 0 0 0 0 0 2 4 0 75 81 19 35 6 5 0 0 0 0 0 0 0 0 0 0 0 0 0 0 0 0 12 100 100 100 76 70 73 97 88 60 48 54 13
27 2 0 0 0 0 0 13 50 64 96 98 51 19 6 1 2 0 0 0 2 0 0 0 0 0 0 0 0 0 5 4 79 100 52 72 100 100 86 100 100 90 91 99
40 15 0 0 0 0 28 70 100 100 31 6 42 5 10 5 5 11 58 39 3 4 0 0 0 0 0 0 3 99 84 48 6 2 12 18 7 16 99 93 98 92 100 100
0 0 0 0 1 0 42 92 100 100 100 5 18 45 6 5 5 5 2 18 30 5 1 5 2 0 2 4 5 5 44 14 5 61 77 100 89 24 92 84 87 100 100 100
89 0 0 3 4 0 0 99 100 100 86 5 5 5 5 5 5 5 5 5 5 5 10 4 3 0 0 5 5 5 34 51 16 2 91 61 39 98 100 100 91 98 100 100
42 4 4 1 1 5 4 100 96 9 2 0 2 21 14 58 85 73 22 5 5 5 4 1 0 0 0 0 13 2 0 3 10 33 22 15 84 100 100 99 100 100 100 100
12 0 7 1 4 98 59 82 76 60 79 49 3 38 84 100 100 24 4 1 0 13 0 15 1 0 0 0 1 87 8 0 0 0 0 96 100 100 100 100 100 100 100 100
3 6 12 3 1 99 80 5 56 99 88 98 100 67 100 100 100 100 100 98 56 17 32 7 1 0 0 8 1 73 40 0 10 36 100 100 100 100 100 100 100 100 100 100
100 100 100 92 83 45 52 5 15 53 100 92 94 100 100 100 100 100 100 100 100 94 60 47 43 49 30 33 5 53 86 98 92 100 100 100 100 100 100 100 100 100 100 100
87 100 78 100 12 12 99 41 5 28 97 100 100 94 100 100 100 100 96 42 4 5 5 21 6 4 50 98 80 100 100 100 100 100 100 100 100 100 100 100 100 100 100 100
97 100 100 100 100 92 97 100 100 95 100 100 100 77 65 100 100 100 100 64 14 97 94 4 1 10 99 53 20 99 100 100 100 100 100 100 100 100 100 100 100 100 100 100
100 100 100 99 100 100 100 100 100 100 100 100 100 100 100 100 100 94 100 79 5 18 2 1 0 6 100 71 100 100 100 100 80 100 100 100 100 100 100 91 100 100 100 100
100 100 100 93 100 100 100 100 100 100 100 100 100 100 100 100 100 72 37 26 8 4 3 4 20 100 100 100 100 100 100 80 100 100 100 100 100 100 100 100 100 100 100 100
100 100 100 100 100 100 100 100 100 100 100 100 100 100 100 100 100 83 99 51 9 24 5 71 92 100 100 100 100 100 100 100 100 100 100 100 100 100 100 100 100 100 100 100
100 100 100 100 100 100 99 100 100 100 100 100 99 100 100 26 59 82 82 60 5 6 89 100 100 100 100 100 100 100 100 100 100 100 100 100 100 100 100 100 100 100 100 100
100 100 100 100 100 100 100 100 100 100 100 100 100 100 100 100 100 100 100 99 94 100 100 100 99 98 100 100 100 100 100 100 100 100 100 100 100 100 100 100 100 100 100 100
100 100 100 100 100 100 100 100 100 100 100 99 100 100 100 100 100 100 100 95 100 100 100 100 81 100 100 100 100 100 100 100 100 100 99 100 100 100 100 100 100 100 100 100
100 100 100 100 97 96 100 100 100 100 100 100 84 100 100 100 100 100 100 59 100 100 100 82 96 86 100 100 100 100 100 100 88 100 100 100 100 100 100 100 100 100 100 100
100 100 100 100 100 100 100 100 100 100 100 100 100 100 100 100 100 100 98 100 100 100 100 99 39 68 18 100 100 100 100 100 100 100 100 100 100 100 100 100 100 100 100 100
100 100 100 100 100 100 100 100 100 100 100 100 100 100 100 100 100 100 100 100 100 100 98 65 35 41 53 92 94 100 100 100 100 98 100 100 100 100 100 100 100 99 100 100
100 100 100 100 100 100 100 100 100 100 100 100 100 100 100 100 100 100 100 100 100 100 96 89 63 100 95 85 87 97 100 83 100 92 65 70 67 99 99 83 43 73 85 24
100 100 100 100 100 100 100 100 100 100 100 100 100 100 100 100 100 100 100 100 100 84 57 48 60 73 50 36 61 75 100 100 100 100 100 100 100 98 100 100 100 81 85 100

GFSNGP_prec_cloud_027.txt.gz
Cloud_Cover
0 0 0 0 0 0 0 17 0 94 0 0 0 0 0 0 0 0 0 4 5 5 2 0 2 4 0 0 0 0 0 0 0 0 0 0 0 5 13 5 1 0 0 0
0 0 0 0 0 0 0 5 3 100 20 0 0 0 0 0 0 0 0 0 0 0 0 2 4 0 0 0 2 3 0 5 1 0 0 0 0 0 0 0 0 0 0 0
0 0 0 0 0 0 0 5 5 97 94 0 0 0 0 0 0 0 0 0 0 0 0 0 3 5 2 0 45 52 5 5 4 5 3 3 0 0 0 0 0 0 0 0
0 0 0 0 0 0 0 3 6 100 100 2 0 0 0 0 0 0 0 0 0 0 0 0 0 0 0 3 3 5 90 5 9 84 100 56 23 2 0 5 5 0 0 0
0 0 0 0 0 0 0 2 55 100 100 54 0 0 5 5 3 0 0 0 0 0 0 0 0 0 0 0 1 1 0 5 36 85 13 5 5 5 5 13 6 0 0 0
4 0 0 0 0 0 0 0 20 100 100 71 5 0 0 3 3 3 2 0 0 0 0 0 0 0 0 0 0 0 0 0 13 100 5 5 9 65 17 16 14 93 17 4
5 0 0 0 0 0 0 5 1 47 71 6 5 5 0 0 0 0 0 0 0 0 0 0 0 0 0 0 0 0 0 0 0 1 1 17 74 98 100 74 100 100 32 3
4 0 0 0 0 0 0 2 0 5 19 63 14 0 0 0 0 0 0 0 0 0 0 0 0 0 0 0 0 0 0 0 0 0 0 1 2 56 57 100 98 100 100 98
5 0 0 0 0 8 35 0 0 0 8 91 96 0 0 0 0 0 0 0 0 0 0 0 3 1 2 5 4 0 0 0 0 0 0 0 0 0 21 89 99 100 100 100
1 0 0 0 0 0 0 0 5 18 48 100 45 0 0 0 0 0 0 0 3 3 3 1 0 1 5 5 5 4 0 0 2 1 5 5 4 48 20 34 92 100 100 100
12 5 1 0 0 0 0 18 37 40 82 96 37 0 0 0 0 0 0 0 0 1 2 5 4 0 0 2 5 5 0 0 0 0 2 5 0 7 11 1 38 67 9 62
15 2 3 0 0 0 0 0 0 70 93 46 69 100 100 76 11 0 0 0 0 0 0 0 0 0 0 0 0 0 0 0 0 3 0 0 14 93 100 90 100 100 94 100
5 15 5 87 4 0 5 28 10 99 100 100 100 97 100 100 100 100 90 11 0 16 17 15 2 6 24 52 37 18 6 1 0 18 0 8 100 100 100 100 100 100 100 100
100 99 17 15 60 99 97 98 100 100 100 100 100 100 100 100 100 100 100 80 15 0 0 0 0 7 94 100 60 50 32 95 54 96 72 97 100 100 100 100 100 100 100 100
100 100 100 100 100 99 73 100 100 100 100 100 100 100 100 100 98 98 100 98 43 11 1 0 0 79 98 45 48 30 24 6 54 56 62 100 100 100 100 100 100 100 100 100
18 5 64 83 100 100 100 100 100 100 100 76 100 71 100 100 100 100 86 100 100 100 100 99 94 98 33 30 16 5 6 83 57 0 64 99 100 100 100 100 100 100 100 100
100 100 100 100 100 100 100 100 100 57 74 67 88 100 100 96 7 33 100 100 100 100 100 100 79 18 36 6 5 6 5 25 75 46 22 36 8 100 100 100 100 100 100 100
100 100 100 100 100 100 100 100 83 45 72 37 59 80 73 93 100 100 100 100 100 100 96 97 94 58 34 8 40 44 78 65 94 14 52 84 68 100 100 100 100 100 100 100
100 100 100 100 100 100 99 100 100 100 100 90 98 93 98 93 98 100 100 100 100 100 100 27 19 90 57 2 5 41 64 98 100 71 52 94 100 100 100 100 100 100 100 100
100 100 100 100 100 100 100 100 100 100 100 100 100 100 100 100 100 98 54 100 60 99 100 100 44 36 5 5 5 99 45 62 90 100 100 100 100 100 100 100 100 100 100 100
100 100 100 100 100 100 100 100 100 100 100 100 100 100 100 100 100 100 100 100 94 92 67 5 33 7 5 88 99 53 10 61 99 59 100 78 100 100 100 100 100 100 100 100
100 100 100 100 100 100 100 100 100 100 100 100 100 100 100 100 100 100 100 100 100 99 70 43 78 93 98 100 26 8 44 100 97 100 100 79 82 100 100 100 100 100 100 100
100 100 100 100 100 100 100 100 100 100 100 100 100 100 100 100 100 100 100 100 95 74 82 97 74 70 100 85 63 99 96 99 100 100 100 100 100 100 100 100 100 100 100 100
100 100 100 100 100 100 100 100 100 100 100 100 100 100 100 100 100 100 100 100 100 100 90 72 70 55 98 100 100 100 100 100 100 74 74 99 100 100 100 100 100 100 100 100
100 100 100 100 100 100 100 100 100 100 100 100 100 100 100 100 95 99 100 68 94 100 84 100 100 99 82 100 100 100 100 100 95 96 95 98 100 100 100 100 100 100 100 100
100 100 100 100 100 77 100 100 100 100 100 100 100 100 100 100 100 100 100 100 96 100 100 99 92 100 100 100 100 100 100 100 100 86 100 100 94 87 100 100 100 100 100 100
100 100 100 100 100 100 100 100 99 100 100 100 100 100 100 100 100 100 100 88 100 100 99 99 100 100 100 100 100 100 100 100 100 100 91 100 100 100 97 90 95 99 98 97

GFSNGP_prec_cloud_030.txt.gz
Cloud_Cover
0 0 0 0 0 0 0 32 9 52 0 0 0 0 0 0 0 0 0 0 1 5 5 5 5 12 62 93 23 8 2 0 0 0 0 0 0 0 0 0 0 0 0 0
0 0 0 0 0 0 0 38 19 99 4 0 0 0 0 0 0 0 0 0 2 5 27 66 5 5 5 5 88 13 4 4 2 5 5 0 0 0 0 0 0 0 0 0
0 0 0 0 0 0 0 5 24 100 13 0 0 0 0 0 0 0 0 0 0 0 0 3 4 1 0 0 0 0 0 1 5 3 5 8 2 0 0 0 0 0 0 0
0 0 0 0 0 0 0 2 7 100 5 0 0 0 0 0 0 0 0 0 0 0 0 0 0 0 0 0 0 0 0 9 54 28 4 47 99 62 8 9 0 5 24 5
1 0 0 0 0 0 0 2 29 100 19 5 0 0 0 0 0 0 0 0 0 0 0 0 0 0 0 0 0 0 0 5 5 5 0 0 6 100 5 5 4 2 6 22
4 0 0 0 0 0 0 2 65 100 100 98 4 0 0 0 0 0 0 0 0 0 0 0 0 0 0 0 0 0 0 0 2 0 5 0 4 5 5 0 2 1 0 4
5 2 0 0 0 0 0 0 6 100 98 5 26 5 0 0 0 1 5 0 0 0 0 0 0 0 0 0 0 0 0 0 0 0 0 0 1 5 5 5 5 5 2 100
2 5 1 0 0 0 0 0 2 99 100 5 17 23 0 0 0 0 5 5 0 0 0 0 0 0 0 0 0 0 0 0 0 0 0 0 0 0 0 0 0 0 64 35
3 0 0 0 0 0 0 0 0 29 100 52 5 5 5 0 0 0 0 0 0 0 0 0 0 0 0 0 0 0 0 0 0 0 0 0 0 0 0 0 0 0 0 9
38 3 5 5 0 0 0 0 0 1 98 98 12 5 0 0 0 0 0 0 0 0 0 0 0 0 0 0 0 0 0 0 0 0 0 0 0 2 0 0 0 0 0 0
87 39 16 5 0 0 0 0 0 0 2 46 55 5 5 0 0 0 5 0 0 0 0 0 0 0 0 3 2 0 0 0 0 0 0 0 0 0 0 2 1 3 2 1
36 55 91 54 66 0 0 0 0 0 0 1 11 100 4 45 53 26 1 0 0 0 0 0 0 0 0 0 0 0 0 0 0 0 0 0 0 0 87 62 93 100 92 54
33 57 97 37 6 5 15 0 0 0 0 1 68 100 100 100 100 98 34 2 3 16 14 2 0 0 10 7 0 0 0 0 0 18 0 0 0 0 0 36 100 100 100 100
86 100 66 100 62 9 0 0 0 2 15 34 100 100 100 100 100 100 99 49 17 9 22 24 9 2 1 4 1 1 0 84 1 0 0 0 0 2 21 21 82 33 80 100
100 99 87 57 100 99 39 53 30 46 61 100 100 100 100 100 87 52 26 39 39 44 68 38 27 51 46 31 6 0 0 0 0 0 1 48 83 90 100 100 100 100 100 100
88 100 100 98 78 56 34 23 7 68 100 100 100 100 99 98 28 0 0 0 0 1 33 88 100 72 20 10 0 0 2 26 39 1 0 0 36 8 59 100 100 100 100 100
91 92 62 11 98 100 48 40 100 100 100 100 100 100 100 59 20 2 0 0 1 4 3 3 74 70 99 85 98 100 100 100 99 91 5 11 12 0 41 54 51 34 73 100
100 100 100 100 100 90 95 100 100 100 100 100 100 100 100 100 12 5 12 11 100 35 21 24 94 99 100 95 100 100 44 95 87 6 16 4 50 32 40 25 61 53 64 100
100 100 100 100 100 100 100 96 100 100 100 100 100 100 100 100 100 100 99 100 100 34 63 100 97 100 100 97 95 81 62 100 67 32 78 22 3 6 73 92 99 100 96 100
100 100 100 100 100 100 100 100 100 100 100 100 100 100 98 100 91 100 100 100 100 100 97 91 100 100 100 100 100 98 77 87 18 25 40 54 77 89 72 99 100 100 100 100
100 100 100 100 100 100 100 100 100 100 100 100 100 100 100 100 100 73 76 72 96 48 72 100 100 100 100 86 55 99 99 21 84 100 82 62 53 37 28 79 100 100 100 100
100 100 100 100 100 100 100 100 100 100 100 100 100 100 100 100 100 80 100 96 44 98 99 99 76 61 53 92 100 34 54 71 10 5 54 93 93 100 100 100 100 100 100 100
100 100 100 100 100 100 100 100 100 100 100 100 100 100 100 100 100 100 100 100 100 100 100 100 98 100 96 100 100 38 68 93 79 71 100 100 44 92 100 100 100 100 100 100
100 100 100 100 100 100 100 100 100 100 100 100 100 100 100 100 100 100 100 100 100 100 100 100 100 100 100 100 100 100 100 100 98 40 46 7 8 73 100 87 100 100 100 100
100 100 100 100 100 100 100 97 100 100 100 100 100 100 100 100 100 100 100 100 100 100 100 100 100 100 100 100 100 100 100 98 99 100 100 98 98 85 76 76 78 100 100 100
100 100 100 93 100 100 100 100 100 100 100 100 100 100 100 100 100 100 100 100 100 100 100 100 100 100 100 100 100 100 99 100 100 100 98 100 100 96 100 100 100 100 73 100
100 100 100 100 100 80 86 98 100 100 100 100 100 100 100 100 100 100 100 100 100 98 100 100 100 100 100 100 100 100 100 100 100 100 89 80 100 100 100 100 100 100 100 90

GFSNGP_prec_cloud_033.txt.gz
Cloud_Cover
1 100 9 0 0 0 0 0 2 5 0 0 0 0 0 0 0 0 0 0 0 0 0 0 0 0 0 0 0 0 0 0 0 0 0 0 0 0 0 0 0 0 0 0
0 79 5 0 0 0 0 0 2 12 5 0 0 0 0 0 0 0 0 0 0 0 0 0 0 1 5 5 69 99 14 1 0 0 0 5 3 0 0 0 0 0 0 0
39 19 47 0 0 0 0 2 5 44 5 2 0 0 0 0 0 0 0 0 0 0 0 0 3 5 5 2 4 4 5 97 92 32 8 5 38 5 5 2 0 0 0 0
48 23 13 0 0 0 0 0 0 32 6 5 0 0 0 0 0 0 0 0 0 0 0 0 0 0 0 0 1 0 3 1 1 31 29 2 5 2 5 5 4 0 0 0
2 1 1 0 0 0 0 0 0 5 5 8 2 0 0 0 0 0 0 0 0 0 0 0 0 0 0 0 0 5 1 0 0 0 2 5 4 0 5 5 5 5 1 0
92 72 78 75 83 0 0 0 5 5 5 7 4 0 0 0 0 0 0 0 0 0 0 0 0 0 0 0 0 4 5 2 0 0 0 0 3 0 0 0 3 5 2 0
98 100 63 99 99 38 1 26 60 4 5 41 11 0 0 0 0 0 0 0 0 0 0 0 0 0 0 0 0 4 2 2 0 0 0 0 0 0 0 0 0 0 0 0
86 97 76 81 79 96 78 5 0 3 68 70 88 80 1 0 0 0 0 0 0 0 0 0 0 0 0 0 0 0 0 0 0 0 0 0 0 0 0 0 0 0 0 0
96 78 5 5 76 39 74 5 0 8 41 92 100 100 10 0 0 0 0 0 4 0 0 0 0 0 0 0 0 0 0 0 0 0 0 0 0 0 0 0 0 0 0 0
92 25 82 1 3 5 3 4 4 4 60 79 100 100 63 5 0 0 0 0 0 2 0 0 0 0 0 0 0 0 0 0 0 0 0 0 0 0 0 0 0 0 0 0
24 13 44 5 1 3 1 0 0 0 79 5 72 99 100 25 7 0 0 9 0 0 0 0 2 5 4 0 0 0 0 0 0 0 0 0 0 0 0 0 0 0 0 0
99 83 17 10 54 4 0 0 0 0 9 72 12 89 100 100 89 47 2 6 18 15 4 2 1 3 3 0 24 7 0 0 0 0 0 0 0 0 38 15 26 100 99 56
67 64 100 97 79 70 75 0 0 0 0 19 13 50 100 100 100 61 22 100 100 97 73 79 79 2 0 0 0 0 0 0 0 0 0 0 0 0 0 33 100 100 100 100
100 51 14 5 20 40 12 44 20 2 0 0 5 5 64 100 100 100 45 100 100 100 100 39 6 1 7 12 20 0 0 44 1 0 0 0 0 0 0 0 0 29 75 73
93 68 53 100 10 42 46 36 12 5 1 1 0 3 5 100 100 100 100 100 100 100 100 72 38 64 17 0 0 0 0 0 0 0 0 2 0 0 1 13 37 14 0 31
52 100 100 99 78 26 79 1 62 16 5 30 10 6 99 100 100 100 100 100 73 98 100 100 99 76 35 14 2 0 1 20 1 0 0 0 0 2 5 15 31 46 18 9
45 93 87 74 35 21 54 74 17 82 17 4 16 100 100 100 100 100 100 100 91 60 86 100 55 43 15 9 21 2 0 6 45 0 0 0 0 0 0 0 18 22 15 17
100 97 100 100 90 37 100 100 80 35 37 100 100 100 100 100 100 100 100 100 100 91 38 4 37 25 10 6 2 0 0 0 3 27 9 0 0 0 0 0 4 4 28 44
100 100 100 100 100 100 100 100 100 100 100 100 100 100 94 100 100 100 100 100 100 97 61 7 0 2 0 40 100 82 30 1 17 51 65 27 42 28 45 98 98 79 56 90
100 100 100 100 100 100 100 100 100 100 100 100 100 100 100 100 100 100 100 100 100 100 100 56 4 2 4 1 16 70 97 85 99 99 95 100 99 92 95 98 100 100 93 92
100 100 100 100 100 100 100 100 100 100 100 100 100 100 100 100 100 100 100 100 100 100 100 91 95 98 100 73 20 84 49 99 100 100 100 96 100 96 90 100 100 100 100 100
100 100 100 100 100 100 100 100 100 100 100 100 100 100 100 100 100 100 100 100 100 100 100 100 100 100 100 100 100 100 100 100 100 100 82 80 62 80 100 100 100 100 100 100
100 100 100 100 100 100 100 100 100 100 100 100 100 100 100 100 100 100 100 100 100 100 100 100 97 66 100 100 100 56 100 100 100 100 100 43 86 67 93 100 97 100 100 100
100 100 100 100 100 100 100 100 100 100 100 100 100 100 100 100 100 100 100 100 100 100 100 100 98 59 36 50 100 100 100 100 100 94 70 95 100 100 94 70 84 97 89 100
100 100 100 100 100 100 100 100 100 100 100 100 100 100 100 100 100 100 100 100 100 83 100 100 99 89 92 100 100 100 62 96 100 100 97 100 100 100 100 100 97 78 96 100
90 100 100 100 100 100 100 100 100 100 100 100 100 100 100 100 100 100 100 100 100 100 100 100 100 100 100 94 85 96 97 100 100 100 100 100 100 100 100 88 81 99 89 100
9 49 85 100 100 100 100 100 100 100 100 100 100 100 100 100 100 100 100 100 100 100 100 100 100 100 100 100 100 100 94 100 100 100 100 100 93 94 97 94 100 100 100 93

GFSNGP_prec_cloud_036.txt.gz
Cloud_Cover
16 35 100 0 0 0 0 0 0 0 1 0 0 0 0 0 0 0 0 2 65 4 1 0 0 0 0 0 0 0 0 0 0 0 0 0 0 0 0 0 0 0 0 0
5 28 92 82 11 0 0 0 0 0 50 0 0 0 0 0 0 0 0 0 2 0 34 77 1 0 0 0 0 0 0 0 0 0 0 0 0 0 0 0 0 0 0 0
0 5 26 98 63 78 2 0 1 0 56 35 25 0 0 0 0 0 0 0 0 0 1 0 0 0 0 0 0 0 0 0 0 1 0 0 0 0 4 0 0 2 5 0
12 99 100 37 92 3 51 4 0 0 70 100 99 5 0 0 0 0 0 0 0 0 0 0 0 0 0 0 0 0 0 0 5 2 5 5 14 46 5 8 5 2 1 5
17 100 62 78 5 8 5 55 100 72 28 87 5 5 0 0 0 0 0 0 0 0 0 0 0 1 2 0 0 0 1 2 5 1 0 0 1 1 4 3 1 1 2 4
5 85 93 99 97 100 100 6 100 100 98 6 1 0 0 0 0 0 0 0 0 0 0 0 0 0 0 0 0 0 0 2 5 5 0 0 0 0 0 10 3 0 0 1
76 10 100 100 100 99 99 100 72 5 33 4 0 0 5 0 0 0 0 0 0 0 0 0 0 0 5 5 5 4 5 5 5 30 33 5 0 0 0 0 1 7 3 0
96 6 100 50 100 100 100 43 4 3 0 0 0 0 0 0 0 0 0 0 0 0 0 0 0 0 0 1 4 4 2 2 5 5 5 5 4 0 0 0 1 0 2 0
100 55 90 100 100 100 27 100 99 2 0 0 0 0 5 41 0 0 0 0 0 0 0 0 0 0 0 0 0 0 0 0 0 0 0 0 0 0 0 0 0 0 2 8
96 11 72 100 70 70 53 6 28 40 2 0 0 6 38 42 4 0 0 8 29 0 0 0 0 0 0 0 0 0 0 0 0 0 0 0 0 0 0 0 1 0 28 26
74 7 18 14 5 5 5 0 2 5 5 1 0 5 64 6 5 59 0 22 0 0 2 0 0 0 0 0 0 0 0 0 0 0 0 0 0 0 5 0 0 8 5 0
5 5 5 1 0 2 1 0 0 0 5 5 0 14 100 100 96 34 0 0 0 1 19 4 0 0 0 0 0 0 0 0 0 0 0 0 0 0 6 54 93 100 100 80
5 1 2 0 0 0 0 0 0 0 0 0 0 0 55 100 100 100 28 20 9 64 100 100 97 11 0 0 0 0 0 0 0 0 18 0 0 0 0 64 100 100 100 100
100 99 46 0 0 0 1 1 0 0 0 0 0 0 2 68 100 100 100 33 34 100 100 88 80 18 35 34 0 0 0 4 0 0 0 5 2 0 0 1 0 5 73 60
88 82 60 4 5 0 0 3 5 3 0 0 0 0 4 6 80 100 100 100 20 100 100 100 100 100 14 0 0 0 0 0 0 0 0 0 0 0 0 0 0 0 0 0
52 93 100 91 99 0 3 5 0 0 0 0 0 0 0 2 5 92 100 100 100 96 100 100 100 100 42 6 0 0 0 0 0 0 0 0 0 0 0 0 0 0 0 0
100 86 99 100 100 66 12 16 4 5 0 0 3 0 3 0 1 89 100 100 100 100 100 100 100 100 79 49 51 12 0 0 0 0 0 0 0 0 0 0 0 0 1 17
100 100 100 100 99 100 67 7 8 57 5 5 14 9 51 86 90 100 100 99 100 100 100 100 100 73 60 1 67 26 68 82 85 39 0 24 30 0 2 2 0 2 53 25
100 100 100 100 100 100 99 68 86 100 100 100 99 99 100 100 100 100 100 100 100 100 100 100 100 100 73 94 58 13 59 85 60 30 50 60 3 32 81 96 100 100 99 93
100 100 100 100 100 100 100 100 100 100 100 100 100 100 100 100 100 100 100 100 71 98 100 90 100 100 100 100 100 81 44 32 57 99 91 15 80 81 100 100 100 99 88 71
100 100 100 100 100 100 100 100 100 100 100 100 100 100 100 100 100 100 100 98 100 100 100 100 100 100 100 100 81 74 93 98 100 77 27 47 63 100 100 100 100 100 100 97
100 100 100 100 100 100 100 100 100 100 100 100 100 100 100 100 100 100 100 100 100 100 94 96 100 100 100 98 98 99 96 92 88 92 28 46 100 100 100 95 100 100 100 100
100 100 100 100 100 100 100 100 100 100 100 100 100 100 100 100 100 100 100 100 100 100 100 100 100 100 100 100 100 100 100 93 88 80 65 69 94 96 100 92 100 99 100 100
100 100 100 100 100 100 100 100 100 100 100 100 100 100 100 100 100 100 100 100 100 100 100 100 100 100 100 100 100 100 100 100 100 100 100 100 100 98 97 83 74 92 100 100
100 100 100 100 100 100 100 100 100 100 100 100 100 100 100 100 100 100 100 100 100 100 100 100 100 100 100 100 100 100 100 100 100 100 100 100 100 100 96 96 64 98 99 100
85 100 100 100 100 100 100 100 100 100 100 100 100 100 100 100 100 100 100 100 100 100 100 100 100 100 100 100 100 100 100 100 100 100 100 100 100 100 100 90 90 73 46 46
98 86 100 99 100 100 100 100 100 100 100 100 100 100 100 100 100 100 100 100 100 100 100 100 100 100 100 100 100 100 100 100 100 100 100 100 100 87 84 58 99 100 93 100

GFSNGP_prec_cloud_042.txt.gz
Cloud_Cover
0 0 1 0 0 1 0 0 0 0 0 0 1 0 0 0 0 0 0 0 0 0 2 4 1 5 0 0 0 0 0 0 0 0 0 0 0 0 0 5 2 0 0 0
0 0 0 0 0 0 0 0 5 0 0 5 4 0 5 0 0 0 0 0 0 0 2 5 1 5 0 0 0 0 0 0 0 0 0 0 0 0 1 5 4 0 0 0
0 31 87 22 12 3 0 0 5 4 2 9 24 1 25 2 0 0 0 0 0 0 0 0 0 0 1 0 0 0 0 0 0 0 0 0 0 2 5 5 0 0 0 0
5 99 99 100 100 5 1 36 3 0 1 100 83 26 19 4 0 0 0 0 0 0 0 0 4 3 5 2 0 0 0 0 0 0 0 0 0 0 1 0 1 0 0 0
60 100 100 100 100 65 5 0 4 0 9 95 10 0 0 0 0 0 0 0 0 0 0 0 0 0 0 0 1 0 0 0 1 5 5 4 5 5 2 0 0 0 0 4
70 100 100 100 100 100 13 1 5 3 0 5 4 5 0 0 0 0 0 0 0 0 0 0 0 0 2 1 5 5 4 2 1 40 93 18 37 5 4 0 0 0 5 5
100 100 100 100 100 94 72 62 66 4 0 0 0 0 2 4 0 0 0 0 0 0 0 0 0 4 52 80 100 99 88 13 5 5 100 100 100 41 2 4 0 3 5 0
100 90 100 100 100 100 96 100 84 39 0 0 0 0 5 0 0 0 0 0 0 0 0 0 0 0 0 0 67 81 8 88 99 100 100 92 100 100 84 5 54 26 4 1
100 76 100 100 100 100 100 100 93 5 1 0 0 0 5 1 0 4 0 0 0 0 0 0 0 0 0 7 0 10 11 9 7 84 84 87 78 11 5 5 16 5 5 14
84 55 19 100 83 100 100 93 100 10 66 21 0 0 1 1 0 0 4 0 0 0 0 0 0 0 0 0 0 0 0 0 0 0 0 2 4 3 2 3 2 0 32 14
95 13 6 95 98 100 100 100 24 0 1 0 11 0 0 1 5 4 0 0 0 0 0 0 0 0 0 0 0 0 0 0 0 0 12 0 42 36 2 0 1 2 1 0
100 96 100 99 100 100 100 100 93 46 2 18 24 16 0 5 56 5 16 0 0 0 0 0 0 0 0 0 0 0 0 0 3 2 17 9 39 100 98 82 70 98 96 52
100 100 100 100 99 100 100 100 100 48 13 37 99 100 50 4 12 57 5 98 0 0 0 0 0 0 0 0 0 0 0 0 0 30 14 14 6 21 87 66 96 51 8 86
100 100 64 59 19 100 100 100 100 100 93 89 86 100 99 60 0 5 0 1 34 0 0 0 0 0 0 0 1 0 0 0 0 0 0 7 28 42 5 0 4 1 62 100
100 100 99 87 100 70 5 96 100 99 93 76 99 100 81 51 43 0 0 0 5 12 0 0 0 0 0 0 0 0 0 0 0 24 1 24 33 52 38 99 100 100 82 60
58 98 100 100 99 100 100 99 100 100 100 100 100 83 100 98 49 0 1 3 4 5 5 0 0 0 0 0 0 0 6 61 97 97 100 98 63 34 92 100 100 100 100 100
100 100 100 100 100 81 99 71 35 87 27 44 100 100 10 69 72 22 5 24 50 15 35 3 8 0 0 0 0 0 74 100 99 98 100 100 100 95 100 100 100 100 88 99
72 98 100 100 100 100 100 100 99 92 98 52 25 66 100 100 100 92 7 0 99 79 83 0 0 8 25 0 0 36 21 57 0 4 3 7 55 65 86 63 61 60 58 76
100 100 100 100 100 100 100 100 100 100 100 99 98 100 100 100 100 100 96 88 91 100 47 24 78 30 33 5 0 1 53 26 27 7 17 29 50 67 80 90 98 92 65 95
100 100 100 100 100 100 100 100 100 100 100 100 100 100 100 100 100 100 100 100 100 100 100 75 28 26 11 2 1 1 0 45 25 64 27 31 63 85 98 100 100 100 100 100
86 100 100 100 100 100 100 100 100 100 100 100 100 100 100 100 100 100 100 100 100 100 100 98 77 50 10 44 53 43 6 44 98 25 64 61 70 100 100 100 100 100 100 100
89 68 94 100 100 100 100 100 100 100 100 100 100 100 100 100 100 100 100 100 100 100 100 100 100 95 86 100 83 100 100 100 100 100 100 88 79 100 100 100 100 100 100 100
100 100 100 100 100 100 100 100 100 100 100 100 100 100 100 100 100 100 100 100 100 100 100 100 100 100 100 100 100 100 100 90 96 100 100 84 77 78 98 100 100 100 100 92
23 89 100 100 100 100 100 100 100 100 100 100 100 100 100 100 100 100 100 100 100 100 100 100 100 100 100 100 100 100 100 100 100 100 100 100 100 100 49 72 43 13 13 51
97 48 87 100 100 100 100 100 100 100 100 100 100 100 100 100 100 100 100 100 100 100 100 100 100 100 100 100 100 100 100 100 100 100 100 100 100 100 100 100 100 100 100 100
5 37 86 12 94 100 100 100 100 100 100 100 100 100 100 100 100 100 100 100 100 100 100 100 100 100 100 100 100 100 100 100 100 100 100 100 100 100 100 100 100 100 90 67
5 14 7 5 21 81 100 100 100 100 100 100 100 100 100 100 100 100 100 100 100 100 100 100 100 100 100 100 100 100 100 100 100 100 100 100 100 100 100 100 100 98 98 96

GFSNGP_prec_cloud_045.txt.gz
Cloud_Cover
6 63 74 5 5 1 0 0 0 2 0 0 0 0 0 0 0 0 0 0 0 0 0 6 63 4 0 0 0 0 0 0 0 0 0 0 0 0 0 0 0 4 5 5
5 27 95 10 92 5 0 0 0 1 0 0 0 0 0 0 0 0 0 0 0 0 0 0 5 4 0 0 0 0 0 0 0 0 0 0 0 0 0 0 0 0 0 1
6 27 100 100 100 89 63 2 0 3 0 1 0 0 0 0 0 0 0 0 0 0 0 0 1 4 0 0 0 0 0 0 0 0 0 0 0 0 0 0 0 0 0 4
38 5 99 100 100 100 99 4 0 0 0 1 0 1 0 0 3 0 0 0 0 0 0 0 1 4 3 4 0 0 0 0 0 0 0 0 0 8 23 0 0 0 0 2
100 71 72 100 96 100 94 4 0 0 0 1 5 5 0 0 0 13 0 0 0 0 0 0 0 0 5 4 0 0 0 0 0 3 5 0 0 0 0 19 15 0 2 5
100 100 88 100 100 88 6 6 0 0 0 0 1 16 43 1 0 0 0 0 0 0 0 0 1 0 3 2 0 0 1 2 0 8 5 4 4 5 5 0 4 0 8 1
100 100 80 100 87 63 95 3 20 0 0 0 10 49 96 29 16 28 2 8 0 0 0 0 0 0 4 5 5 42 6 0 1 72 88 99 30 38 5 0 0 0 5 2
100 100 100 100 44 69 28 74 77 4 0 31 99 100 100 11 0 5 5 0 2 4 2 0 0 0 0 19 5 5 12 0 5 4 63 47 22 14 8 5 1 5 1 5
100 100 100 100 79 100 100 100 93 10 53 99 100 100 100 52 6 2 7 5 0 0 1 0 0 0 0 5 5 5 5 3 11 2 3 84 93 94 5 5 17 7 12 100
100 100 100 100 92 84 90 100 100 87 100 100 100 100 100 83 93 3 5 5 5 0 2 18 0 0 0 3 4 16 54 92 100 100 96 69 58 34 100 94 77 98 93 54
100 100 100 100 100 100 100 90 100 100 100 100 100 100 100 100 48 93 5 5 5 5 2 2 1 0 0 0 0 1 0 0 1 40 96 100 100 100 98 74 40 5 5 8
100 100 100 90 71 90 100 100 100 100 100 100 100 100 93 98 78 12 33 5 5 5 38 5 1 0 0 0 0 0 0 0 4 1 18 38 100 100 100 99 96 100 98 58
100 100 100 98 83 98 98 100 100 100 100 100 100 100 100 75 16 18 78 1 62 5 6 39 5 0 0 0 0 0 0 0 0 32 32 77 89 100 21 38 60 93 87 52
100 100 100 100 100 48 23 60 100 100 100 100 100 100 100 100 44 5 5 5 0 11 9 5 4 0 0 0 0 0 0 8 0 0 11 51 55 42 0 0 0 3 69 54
100 100 100 100 100 88 100 100 100 100 100 100 100 100 100 100 100 30 5 6 9 2 2 5 5 5 0 0 0 0 0 0 0 17 44 55 79 88 44 65 76 82 63 100
100 100 100 100 100 100 82 100 100 98 100 100 100 100 100 100 100 88 5 5 5 4 0 0 0 1 0 0 0 0 0 1 3 10 20 80 100 100 100 100 100 100 100 100
100 99 100 100 100 100 100 100 100 100 100 100 100 100 100 100 92 28 23 5 5 5 5 0 8 19 77 0 0 0 0 0 0 0 5 58 99 100 100 100 100 100 100 100
94 94 84 99 100 100 100 100 100 100 100 100 100 100 100 100 72 84 56 12 10 40 75 20 49 24 1 0 0 0 0 0 0 21 35 49 37 74 94 100 100 100 100 100
100 64 64 30 43 100 100 100 100 100 100 100 100 100 100 100 100 100 100 100 100 100 99 76 33 26 3 5 0 0 0 0 17 43 73 88 99 100 100 100 100 100 100 100
100 98 7 7 11 36 100 100 100 100 100 100 100 100 100 100 100 100 100 100 100 100 100 100 68 70 37 20 5 19 0 9 52 73 69 98 100 100 100 100 92 100 100 100
100 84 18 5 13 54 91 89 100 100 100 100 100 100 100 100 100 100 100 100 100 100 100 100 100 90 73 49 5 10 35 51 69 85 100 100 100 100 100 100 100 97 90 100
23 75 37 26 7 83 99 100 100 100 100 100 100 100 100 100 100 100 100 100 100 100 100 100 100 100 100 100 91 94 100 100 100 100 100 100 100 100 100 100 100 100 100 100
5 5 7 8 78 81 100 99 100 100 100 100 100 100 100 100 100 100 100 100 100 100 100 100 100 100 100 100 100 100 100 100 100 100 100 100 100 100 100 100 100 100 100 100
5 5 5 5 5 44 85 100 100 100 100 100 100 100 100 100 100 100 100 100 100 100 100 100 100 100 100 100 100 100 100 100 100 100 100 100 100 100 100 100 100 83 98 99
5 5 5 4 5 6 55 97 100 100 100 100 100 100 100 100 100 100 100 100 100 100 100 100 100 100 100 100 100 100 100 100 100 100 100 100 100 100 100 100 100 100 100 100
5 5 5 5 2 30 5 32 100 100 100 100 100 100 100 100 100 100 100 100 100 100 100 100 100 100 100 100 100 100 100 100 100 100 100 100 100 100 100 100 100 100 100 100
5 5 5 5 3 0 1 5 5 72 100 100 100 100 100 100 100 100 100 100 100 100 100 100 100 100 100 100 100 100 100 100 100 100 100 100 100 100 100 100 99 92 98 100

GFSNGP_prec_cloud_048.txt.gz
Cloud_Cover
6 5 14 0 89 81 6 5 4 0 3 0 0 0 0 0 0 0 0 0 0 3 98 5 5 5 5 2 0 0 0 0 0 0 0 0 0 0 0 0 0 0 0 0
61 3 5 1 73 99 12 5 5 0 74 0 0 0 0 0 0 0 0 0 0 0 24 16 38 8 5 2 0 0 0 0 0 0 0 0 0 0 0 0 0 0 0 0
100 15 5 5 26 45 16 5 5 0 74 0 0 0 2 0 0 48 21 0 0 0 0 5 37 5 5 0 0 0 0 0 0 0 0 0 0 0 0 0 0 0 0 0
100 97 5 3 97 64 29 5 5 0 6 1 0 0 0 30 45 62 99 6 0 0 0 0 5 3 5 0 0 0 0 0 0 0 0 0 0 0 0 0 0 0 0 0
100 37 91 84 100 90 99 18 5 0 70 70 0 0 0 59 77 100 100 74 0 0 0 3 4 4 0 0 0 0 0 0 0 0 0 0 0 0 0 0 0 0 0 0
100 100 100 100 16 41 5 99 14 39 24 7 0 70 98 100 100 100 100 100 6 0 0 7 75 5 0 0 0 0 0 0 0 0 0 0 0 0 0 13 1 0 3 5
100 100 100 100 16 5 75 54 62 98 100 49 3 40 100 100 100 97 97 98 19 8 14 35 11 5 4 4 0 0 0 0 0 0 4 5 3 4 0 2 22 43 30 4
100 100 100 100 72 86 16 88 81 100 100 100 97 100 100 98 67 82 79 65 98 100 75 6 0 4 0 2 2 2 5 3 0 0 5 85 86 5 5 5 14 20 28 40
100 100 100 100 100 54 92 10 80 100 100 100 100 100 100 100 76 91 100 97 35 75 7 5 0 1 5 3 3 5 50 60 50 1 2 5 58 5 6 23 5 24 38 37
100 100 100 100 100 48 6 21 100 100 100 100 100 100 100 100 100 90 67 100 60 13 34 14 5 73 41 5 3 19 70 100 100 100 2 2 85 9 39 54 40 7 45 8
100 100 100 100 95 59 84 59 100 100 100 100 100 100 100 97 67 30 60 100 27 9 33 37 5 5 100 98 98 98 81 47 90 96 28 0 58 71 76 99 70 31 36 16
100 100 100 100 94 98 99 99 83 100 100 100 100 100 100 100 60 6 45 42 96 85 33 23 5 5 2 10 3 5 5 5 7 14 15 29 62 69 99 98 100 100 99 55
100 100 100 100 100 100 91 74 96 88 100 100 100 100 100 100 100 62 94 53 87 100 99 40 5 5 5 5 4 0 5 5 11 19 46 100 100 100 97 99 100 100 100 100
100 100 100 100 100 100 100 100 79 100 98 100 100 100 100 100 100 100 85 24 92 100 100 100 55 25 7 20 77 5 0 71 1 0 0 93 100 100 50 13 80 100 100 99
100 100 99 100 100 100 100 85 67 100 98 100 100 100 100 100 100 100 100 43 21 100 100 100 100 34 28 5 5 5 5 0 0 17 53 82 100 98 47 9 2 30 69 96
100 100 100 100 100 100 100 100 100 100 100 100 100 100 100 100 100 100 100 100 24 86 97 100 100 89 5 5 5 5 0 26 31 21 100 100 100 100 52 29 9 10 12 28
100 100 100 100 100 100 100 100 100 100 100 100 100 100 100 100 100 100 100 100 53 40 54 89 100 100 72 5 5 5 0 0 10 7 84 100 100 100 100 93 69 87 100 100
92 90 100 100 100 100 82 100 100 100 100 100 100 100 100 100 100 100 100 100 100 80 86 100 100 100 76 13 7 5 0 0 0 13 47 98 100 100 100 96 100 100 100 100
100 100 72 4 21 70 96 100 100 100 100 100 100 100 100 100 100 100 100 100 100 100 100 96 61 95 79 28 80 38 5 5 23 65 89 99 100 100 100 100 100 100 100 100
100 95 5 0 0 9 45 74 100 100 100 100 100 100 100 100 100 100 100 100 100 100 100 100 100 91 91 51 57 31 63 99 82 100 100 100 100 100 100 100 95 100 100 100
100 100 99 26 4 0 3 5 50 85 100 100 100 100 100 100 100 100 100 100 100 100 100 100 100 100 100 99 100 99 70 100 100 100 100 100 100 100 100 100 100 100 100 100
58 86 96 29 5 5 1 3 5 5 5 57 99 100 100 100 100 100 100 100 100 100 100 100 100 100 100 100 100 100 100 100 100 100 100 100 100 100 100 100 100 100 100 100
2 4 1 15 66 5 4 1 76 11 26 5 5 26 71 96 100 100 100 100 100 100 100 100 100 100 100 100 100 100 100 100 100 100 100 100 100 100 100 100 100 100 100 100
0 0 0 3 3 4 3 0 2 46 8 17 22 38 43 80 86 96 100 100 100 100 100 100 100 100 100 100 100 100 100 100 100 100 100 100 100 100 100 100 100 100 100 100
5 5 5 0 0 0 0 0 0 15 59 76 10 67 89 93 67 88 88 84 100 100 100 100 100 100 100 100 100 100 100 100 100 100 100 100 100 100 100 100 100 100 100 100
5 5 5 3 2 1 0 0 5 5 5 5 5 23 78 100 97 100 100 76 93 100 100 100 100 100 100 100 100 100 100 100 100 100 100 100 100 100 100 100 100 100 100 100
5 18 47 5 0 5 5 1 0 5 4 5 47 28 5 6 86 100 100 100 99 71 100 100 100 100 100 100 100 100 100 100 100 100 100 100 100 100 100 100 100 100 100 100